This demonstration page uses our WeatherBlox Daily Observations layout. Learn more.

Left ArrowRight Arrow

Hourly Observations for January 2, 2022

Temp ( °F °C ) Dew Point ( °F °C ) Humidity (%) Winds ( mph kmh ) Pressure ( in mb ) Visibility ( mi km ) Precip ( " mm )
12:51 am 00:51 Clear 32 0 15 -9.4 50 50 N 7 11 30.33 1027 10 16 0.00 0.00
1:51 am 01:51 Clear 27 -2.8 19 -7.2 72 72 Calm 30.37 1028 10 16 0.00 0.00
2:51 am 02:51 Clear 25 -3.9 21 -6.1 85 85 ENE 6 9 30.37 1028 10 16 0.00 0.00
3:51 am 03:51 Clear 25 -3.9 19 -7.2 78 78 SE 3 6 30.35 1028 10 16 0.00 0.00
4:51 am 04:51 Clear 24 -4.4 19 -7.2 81 81 Calm 30.36 1028 10 16 0.00 0.00
5:51 am 05:51 Clear 26 -3.3 17 -8.3 69 69 ESE 7 11 30.38 1029 10 16 0.00 0.00
6:51 am 06:51 Clear 28 -2.2 16 -8.9 60 60 ESE 13 20 30.39 1029 10 16 0.00 0.00
7:51 am 07:51 Sunny 29 -1.7 15 -9.4 56 56 SE 13 20 30.43 1030 10 16 0.00 0.00
8:51 am 08:51 Sunny 32 0 14 -10 47 47 E 13 20 30.44 1031 10 16 0.00 0.00
9:51 am 09:51 Sunny 36 2.2 14 -10 40 40 E 12 19 30.46 1031 10 16 0.00 0.00
10:51 am 10:51 Sunny 38 3.3 13 -10.6 36 36 ESE 8 13 30.46 1032 10 16 0.00 0.00
11:51 am 11:51 Sunny 42 5.6 17 -8.3 36 36 ESE 13 20 30.42 1030 10 16 0.00 0.00
12:51 pm 12:51 Sunny 44 6.7 15 -9.4 31 31 SSE 13 20 30.38 1029 10 16 0.00 0.00
1:51 pm 13:51 Sunny 46 7.8 16 -8.9 30 30 SE 10 17 30.35 1028 10 16 0.00 0.00
2:51 pm 14:51 Sunny 48 8.9 17 -8.3 29 29 ESE 13 20 30.33 1027 10 16 0.00 0.00
3:51 pm 15:51 Sunny 48 8.9 18 -7.8 30 30 SSE 12 19 30.32 1027 10 16 0.00 0.00
4:51 pm 16:51 Sunny 47 8.3 19 -7.2 33 33 SE 9 15 30.32 1027 10 16 0.00 0.00
5:51 pm 17:51 Clear 40 4.4 22 -5.6 49 49 E 9 15 30.33 1027 10 16 0.00 0.00
6:51 pm 18:51 Clear 41 5 21 -6.1 45 45 E 10 17 30.33 1027 10 16 0.00 0.00
7:51 pm 19:51 Clear 40 4.4 20 -6.7 45 45 E 10 17 30.33 1027 10 16 0.00 0.00
8:51 pm 20:51 Clear 35 1.7 23 -5 61 61 SSE 9 15 30.34 1028 10 16 0.00 0.00
9:51 pm 21:51 Clear 37 2.8 20 -6.7 50 50 SE 9 15 30.34 1028 10 16 0.00 0.00
10:51 pm 22:51 Clear 36 2.2 20 -6.7 52 52 SE 9 15 30.34 1027 10 16 0.00 0.00
11:51 pm 23:51 Clear 34 1.1 21 -6.1 59 59 SE 9 15 30.34 1027 10 16 0.00 0.00

Powered by AerisWeather